Flag for U.S.A. Weather past 2 weeks in Glennallen, Alaska, U.S.A.

Now
50 °F

Mostly cloudy.


Feels Like: 48 °F
Forecast: 46 / 68 °F
Wind: 6 mph from South

Location: Gulkana Airport

Current Time: Jul 24, 2014 at 2:56:26 AM

Latest Report: Jul 24, 2014 at 1:53 AM


Visibility: 10 mi

Pressure: 29.85 "Hg

Humidity: 80%

Dew point: 44 °F

Location of GlennallenLocation

Historic Weather in Glennallen — Graph

°F

Glennallen temperature yesterday

Maximum temperature yesterday: 58 °F (at 12:53 AM)
Minimum temperature yesterday: 50 °F (at 9:53 AM)
Average temperature yesterday: 54 °F

Past Weeks' High & Low Weather Summary

 TemperatureHumidityPressure
High74 °F (Jul 18, 5:53 PM)97% (Jul 11, 8:53 AM)30.31 "Hg (Jul 11, 8:53 AM)
Low35 °F (Jul 14, 4:53 AM)25% (Jul 22, 4:53 PM)29.55 "Hg (Jul 18, 8:53 PM)
Average57 °F67%29.91 "Hg
* Reported Jul 9 4:53 AM — Jul 24 1:53 AM, Glennallen, Weather by CustomWeather, © 2014

Note: Actual official high and low records may vary slightly from our data, if they occured in-between our weather recording intervals... More about our weather records

Advertising

Glennallen weather history for previous 24 hours

 ConditionsComfort  
Time TempWeatherWind HumidityBarometerVisibility
1:53 AM
Jul 24
50 °FMostly cloudy.6 mph80%29.85 "Hg10 mi
12:53 AM50 °FPartly cloudy.7 mph83%29.85 "Hg10 mi
11:53 PM
Jul 23
51 °FOvercast.7 mph80%29.84 "Hg10 mi
10:53 PM52 °FOvercast.6 mph77%29.84 "Hg10 mi
9:53 PM53 °FOvercast.7 mph74%29.84 "Hg10 mi
8:53 PM55 °FOvercast.7 mph69%29.83 "Hg10 mi
7:53 PM56 °FOvercast.6 mph67%29.83 "Hg10 mi
6:53 PM57 °FMostly cloudy.9 mph62%29.84 "Hg10 mi
5:53 PM57 °FOvercast.8 mph62%29.84 "Hg10 mi
4:53 PM57 °FOvercast.12 mph62%29.84 "Hg10 mi
3:53 PM58 °FOvercast.12 mph65%29.85 "Hg10 mi
2:53 PM56 °FOvercast.13 mph67%29.85 "Hg10 mi
1:53 PM52 °FOvercast.8 mph77%29.87 "Hg10 mi
12:53 PM52 °FLight rain. Overcast.14 mph80%29.87 "Hg10 mi
11:53 AM52 °FOvercast.13 mph75%29.87 "Hg10 mi
10:53 AM51 °FMostly cloudy.9 mph83%29.87 "Hg10 mi
9:53 AM50 °FLight rain. Overcast.9 mph83%29.88 "Hg10 mi
8:53 AM51 °FOvercast.9 mph71%29.87 "Hg10 mi
7:53 AM53 °FOvercast.12 mph59%29.85 "Hg10 mi
6:53 AM53 °FOvercast.8 mph52%29.83 "Hg10 mi
5:53 AM53 °FOvercast.9 mph56%29.81 "Hg10 mi
4:53 AM54 °FPassing clouds.13 mph55%29.80 "Hg10 mi
3:53 AM54 °FClear.14 mph53%29.80 "Hg10 mi
2:53 AM55 °FClear.12 mph51%29.80 "Hg10 mi
Weather by CustomWeather, © 2014

See weather overviewHow to use our weather pages